Date,TemperatureHighF,TemperatureAvgF,TemperatureLowF,DewpointHighF,DewpointAvgF,DewpointLowF,HumidityHigh,HumidityAvg,HumidityLow,PressureMaxIn,PressureMinIn,WindSpeedMaxMPH,WindSpeedAvgMPH,GustSpeedMaxMPH,PrecipitationSumIn
2013-1-15,36,36,36,35,35,35,98,98,98,30.11,30.11,5,5,7,0.00
2013-1-16,35,35,34,35,34,34,99,98,98,30.11,30.09,6,3,13,0.58
2013-1-17,49,39,33,40,35,32,98,88,64,30.45,30.10,7,2,20,0.25
2013-1-18,57,42,30,39,33,28,95,74,35,30.56,30.38,5,0,20,0.01
2013-1-19,61,45,31,44,37,28,93,73,49,30.38,30.22,3,0,9,0.01
2013-1-20,65,47,33,47,38,31,98,74,39,30.27,30.14,3,0,9,0.01
2013-1-21,58,45,35,47,37,31,97,76,48,30.25,30.13,5,1,16,0.00
2013-1-22,50,42,33,36,28,23,78,59,41,30.39,30.25,3,0,16,0.00
2013-1-23,69,53,38,48,41,31,79,67,41,30.36,30.22,5,0,13,0.00
2013-1-24,67,56,48,58,52,44,95,85,71,30.31,30.18,3,0,13,0.00
2013-1-25,74,62,55,58,55,51,96,79,54,30.20,30.06,7,2,21,0.00
2013-1-26,55,52,48,52,49,45,96,89,81,30.26,30.16,3,1,21,0.00
2013-1-27,73,59,47,59,52,44,98,79,52,30.27,30.15,5,1,13,0.00
2013-1-28,72,64,58,62,58,54,94,83,66,30.23,30.09,5,1,13,0.00
2013-1-29,79,71,64,66,64,61,93,79,60,30.09,29.67,10,3,24,0.00
2013-1-30,74,55,41,66,46,29,96,73,54,30.10,29.61,10,3,27,1.13
2013-1-31,60,50,33,35,29,23,85,46,26,30.27,30.10,5,1,27,0.00
2013-2-1,53,44,35,33,25,20,68,51,27,30.46,30.26,8,1,15,0.00
2013-2-2,68,50,34,46,35,21,82,57,43,30.34,30.14,5,1,16,0.00
2013-2-3,66,49,35,45,35,28,98,64,24,30.25,30.12,7,1,21,0.00
2013-2-4,59,50,40,42,36,32,80,61,42,30.13,29.95,5,0,21,0.00
2013-2-5,65,56,48,58,52,42,95,86,68,30.05,29.92,3,0,9,0.00
2013-2-6,69,57,44,58,52,43,99,84,59,30.14,29.96,3,0,10,0.13
2013-2-7,67,59,53,60,56,51,97,90,72,29.98,29.87,3,0,10,0.13
2013-2-8,58,54,42,57,50,38,99,89,76,30.22,29.92,6,1,19,0.00
2013-2-9,63,49,34,45,39,32,94,72,43,30.26,30.05,5,1,19,0.01
2013-2-10,63,59,54,62,57,46,99,92,73,30.06,29.83,7,2,17,1.91
2013-2-11,62,54,50,62,54,50,99,99,98,30.19,29.96,3,0,17,0.55
2013-2-12,51,49,48,50,49,47,99,98,92,30.12,29.77,8,1,30,1.05
2013-2-13,51,49,48,51,49,47,99,98,95,29.85,29.81,5,2,30,0.87
2013-4-6,77,66,61,50,47,42,66,51,31,30.03,29.98,2,0,14,0.00
2013-4-7,77,64,51,58,53,48,95,71,44,30.09,29.94,5,0,14,0.00
2013-4-8,83,69,58,63,59,55,94,73,45,30.01,29.89,3,1,16,0.00
2013-4-9,88,75,68,70,66,63,92,76,52,29.99,29.89,5,1,21,0.00
2013-4-10,74,73,72,67,66,66,82,81,79,29.94,29.89,5,1,21,0.00
2013-4-15,83,76,73,70,68,66,89,78,60,29.94,29.86,1,0,12,0.00
2013-4-16,86,77,72,72,70,68,94,80,59,30.05,29.94,3,0,12,0.00
2013-4-17,87,77,69,72,69,67,96,78,53,30.07,29.91,5,0,14,0.00
2013-4-18,84,74,58,70,66,56,92,78,60,29.91,29.67,7,2,23,0.74
2013-4-19,60,51,42,56,42,38,95,74,45,30.18,29.83,7,2,23,1.11
2013-4-20,71,54,37,48,40,35,98,66,31,30.27,30.13,3,0,21,0.01
2013-4-21,75,58,42,46,42,39,92,61,28,30.26,30.12,6,0,12,0.00
2013-4-22,80,62,45,55,50,42,93,67,40,30.16,30.00,2,0,11,0.00
2013-4-23,81,70,62,66,61,55,85,76,56,30.07,29.93,2,0,11,0.00
2013-4-24,69,59,51,64,56,46,96,87,79,30.25,29.95,5,1,16,0.77
2013-4-25,74,57,44,48,44,39,91,65,30,30.35,30.23,5,1,16,0.01
2013-4-26,81,64,46,60,50,42,88,65,40,30.31,30.16,2,0,11,0.01
2013-4-27,65,65,64,59,59,58,83,81,81,30.16,30.12,0,0,7,0.00
2013-4-30,72,67,66,65,64,63,95,90,75,29.93,29.88,2,0,10,0.15
2013-5-1,71,65,63,70,64,62,99,97,95,29.95,29.86,3,0,10,1.02
2013-5-2,70,66,63,66,64,62,99,94,85,29.98,29.88,2,0,10,0.51
2013-5-3,66,55,43,65,54,40,99,96,90,30.02,29.87,6,1,18,0.93
2013-5-4,71,52,36,49,44,35,99,76,36,30.02,29.84,3,0,18,0.01
2013-5-5,61,52,46,48,45,43,93,79,59,29.98,29.84,7,1,16,0.02
2013-5-6,69,59,49,57,52,46,91,78,63,29.97,29.91,5,1,16,0.00
2013-5-7,77,63,51,61,55,49,98,78,53,30.02,29.93,3,0,15,0.00
2013-5-8,84,68,53,64,57,52,98,74,40,30.10,30.00,2,0,9,0.00
2013-5-9,84,72,60,68,62,57,96,73,48,30.10,29.97,2,0,7,0.00
2013-5-10,71,70,70,65,64,63,85,81,76,29.98,29.93,1,0,7,0.03
2013-5-15,61,61,61,55,55,55,82,82,82,30.13,30.13,0,0,0,0.00
2013-5-27,90,75,62,71,66,60,96,75,48,30.12,29.98,3,0,10,0.00
2013-5-28,89,76,65,67,63,59,91,67,44,30.04,29.96,3,0,10,0.00
2013-5-29,88,77,67,74,69,59,94,78,57,30.03,29.92,3,0,13,0.00
2013-5-30,86,76,71,75,71,68,94,84,65,30.01,29.91,3,0,13,0.02
2013-5-31,90,80,73,76,73,70,94,79,61,30.01,29.89,2,0,13,0.02
2013-6-1,93,80,73,76,72,69,95,79,55,29.96,29.85,2,0,13,0.00
2013-6-2,83,74,67,73,70,66,98,88,68,30.01,29.86,6,0,14,1.08
2013-6-3,86,76,70,73,70,66,98,83,62,29.95,29.85,2,0,14,0.07
2013-6-4,91,78,68,76,71,66,95,81,60,29.94,29.84,1,0,7,0.01
2013-6-5,93,78,70,78,73,68,98,86,57,29.92,29.77,5,0,15,0.98
2013-6-6,86,72,68,78,71,67,99,95,76,29.86,29.74,6,0,21,0.45
2013-6-7,82,73,68,74,70,65,99,90,66,29.89,29.75,3,0,21,0.08
2013-6-8,86,74,64,73,68,63,99,83,62,29.96,29.88,3,0,10,0.07
2013-6-9,88,76,69,76,72,67,98,86,64,29.96,29.85,2,0,12,0.18
2013-6-10,94,80,70,76,72,69,98,79,48,29.98,29.91,2,0,12,0.15
2013-6-11,95,82,73,79,74,71,98,79,49,30.07,29.97,2,0,9,0.01
2013-6-12,76,75,74,73,72,72,95,93,91,30.02,29.99,0,0,9,0.00
2013-6-15,76,75,74,72,72,71,95,89,88,30.00,29.97,0,0,6,0.00
2013-6-16,92,79,71,77,72,68,96,81,56,30.03,29.93,5,0,13,0.00
2013-6-17,94,82,72,79,74,70,97,79,51,29.97,29.85,5,0,13,0.00
2013-6-18,89,79,72,74,72,70,96,81,60,29.96,29.87,3,0,17,0.21
2013-6-19,89,77,71,77,72,69,98,86,62,30.01,29.91,1,0,17,0.05
2013-6-20,92,78,69,78,72,68,99,85,53,30.09,30.00,1,0,6,0.01
2013-6-22,91,88,84,77,75,73,78,66,56,30.10,30.07,3,1,6,0.00
2013-6-29,92,80,70,79,70,63,98,76,41,29.77,29.67,5,0,14,0.01
2013-6-30,90,78,67,74,66,62,97,71,44,29.79,29.70,6,1,17,0.01
2013-7-1,88,76,64,70,65,62,96,72,47,29.91,29.78,6,1,17,0.00
2013-7-2,89,76,65,69,64,61,96,71,40,30.00,29.89,2,0,15,0.00
2013-7-3,91,75,63,71,66,61,96,74,44,30.04,29.94,2,0,10,0.00
2013-7-4,90,77,69,74,70,65,95,81,55,29.98,29.89,5,0,12,0.00
2013-7-5,84,76,69,76,72,68,97,87,70,30.01,29.94,2,0,12,0.01
2013-7-6,86,75,69,76,71,68,98,88,67,30.03,29.93,1,0,7,0.03
2013-7-7,93,80,73,76,73,71,96,83,57,30.07,29.97,2,0,7,0.02
2013-7-8,96,80,73,77,73,70,98,81,46,30.14,30.04,3,0,7,0.14
2013-7-9,96,82,73,79,75,71,98,82,46,30.16,30.02,3,0,9,0.15
2013-7-10,76,76,75,74,74,73,96,95,93,30.05,30.04,0,0,9,0.03
2013-8-15,68,68,68,65,65,65,90,90,90,29.94,29.94,0,0,4,0.00
2013-10-3,86,76,70,76,72,68,96,89,68,30.03,29.93,2,0,6,0.11
2013-10-4,89,78,72,76,72,70,99,83,55,30.03,29.94,2,0,7,0.11
2013-10-5,89,78,72,76,72,70,97,84,57,30.01,29.88,3,0,10,0.00
2013-10-6,74,68,57,73,63,52,99,85,63,29.96,29.84,7,1,18,0.08
2013-10-7,76,62,52,56,52,48,92,72,47,30.05,29.94,6,1,13,0.02
2013-10-8,78,62,51,57,53,48,95,74,42,30.06,29.99,3,0,10,0.00
2013-10-9,79,65,54,69,60,51,98,85,65,30.10,30.00,3,0,6,0.00
2013-10-10,64,62,61,62,61,60,95,94,93,30.06,30.06,0,0,0,0.00
2013-12-3,76,66,60,65,61,59,98,84,57,29.75,29.65,5,1,16,0.00
2013-12-4,79,71,66,68,65,64,94,83,63,29.88,29.74,6,1,15,0.00
2013-12-5,80,69,50,70,64,48,96,85,65,29.98,29.85,3,1,16,0.00
2013-12-6,49,42,36,47,41,35,98,96,94,30.29,29.95,5,1,17,0.27
2013-12-7,35,33,32,34,29,-100,98,92,89,30.42,30.27,5,2,14,0.01
2013-12-8,43,39,35,43,38,34,99,98,95,30.27,30.07,2,0,5,0.78
2013-12-9,43,41,39,43,41,39,99,99,99,30.18,30.09,3,1,11,0.76